Location: Saint-Palais-sur-Mer
(45.6429°N, 1.0859°W)
Time: 23:44:25
(UTC+01:00)

Vanguard 1 - Pass Details

Date: 11 February 2026
Orbit: 653 x 3818 km, 34.2° (Epoch: 12 March)

Event Time Altitude Azimuth Distance (km) Brightness Sun altitude
Rises 18:41:41 0° 240° (WSW) 5,726 16.0 -3.6°
Reaches altitude 10° 18:44:56 10° 236° (SW) 5,070 15.2 -4.1°
Maximum altitude 19:00:37 56° 164° (SSE) 3,816 13.0 -6.8°
Drops below altitude 10° 19:22:50 10° 95° (E) 6,902 13.7 -10.6°
Enters shadow 19:23:08 - 95° (E) 6,952 13.7 -10.6°
